This demonstration page uses our WeatherBlox Daily Observations layout. Learn more.

41.86663, -103.66717

Hourly Observations for May 17, 2019

Temp ( °F °C ) Dew Point ( °F °C ) Humidity (%) Winds ( mph kmh ) Pressure ( in mb ) Visibility ( mi km ) Precip ( " mm )
12:53 am 00:53 Clear 58 14.4 55 12.8 90 90 ENE 17 28 29.56 1001 10 16.09344 0 0
1:53 am 01:53 Clear 56 13.3 54 12.2 93 93 ENE 16 26 29.53 1000 10 16.09344 0 0
2:35 am 02:35 Mostly Cloudy 56 13.3 53 11.7 90 90 ENE 15 24 29.59 1002 10 16.09344 0 0
2:53 am 02:53 Mostly Cloudy 55 12.8 53 11.7 93 93 ENE 16 26 29.53 1000 10 16.09344 0 0
3:02 am 03:02 Cloudy 55 13 54 12 94 94 ENE 16 26 29.56 1001 10 16.09344 0 0
3:53 am 03:53 Cloudy 55 12.8 53 11.7 93 93 NE 12 19 29.53 1000 10 16.09344 0 0
4:53 am 04:53 Cloudy 55 12.8 52 11.1 90 90 NE 12 19 29.53 1000 10 16.09344 0 0
5:17 am 05:17 Cloudy 54 12.2 52 11.1 93 93 ENE 14 22 29.59 1002 10 16.09344 0 0
5:53 am 05:53 Cloudy 54 12.2 52 11.1 93 93 NE 15 24 29.53 1000 10 16.09344 0 0
6:53 am 06:53 Cloudy 53 11.7 51 10.6 93 93 ENE 15 24 29.5 999 9 14.484096 0 0
7:53 am 07:53 Cloudy 53 11.7 51 10.6 93 93 NE 14 22 29.53 1000 9 14.484096 0 0
8:39 am 08:39 Cloudy with Light Rain 52 11.1 51 10.6 97 97 N 13 20 29.59 1002 2 3.218688 0.001 0.001
8:53 am 08:53 Cloudy with Light Rain 52 11.1 51 10.6 97 97 NNE 12 19 29.53 1000 1.5 2.414016 0.001 0.001
9:23 am 09:23 Cloudy with Light Rain 51 10.6 51 10.6 100 100 NNE 16 26 29.56 1001 1.25 2.01168 0.02 0.508
9:50 am 09:50 Cloudy with Light Rain 52 11 50 10 94 94 NNE 15 24 29.56 1001 2.5 4.02336 0 0
9:53 am 09:53 Cloudy with Light Rain 51 10.6 50 10 96 96 NNE 20 31 29.53 1000 2.5 4.02336 0.03 0.762
10:03 am 10:03 Cloudy with Light Rain 52 11.1 50 10 93 93 NNE 16 26 29.56 1001 4 6.437376 0.001 0.001
10:53 am 10:53 Cloudy 53 11.7 51 10.6 93 93 NE 17 28 29.53 1000 10 16.09344 0.001 0.001
11:53 am 11:53 Cloudy 54 12.2 50 10 87 87 NE 17 28 29.53 1000 10 16.09344 0 0
12:53 pm 12:53 Cloudy 55 12.8 49 9.4 80 80 NNE 17 28 29.5 999 10 16.09344 0 0
1:53 pm 13:53 Cloudy 54 12.2 48 8.9 80 80 NNE 18 30 29.53 1000 10 16.09344 0 0
2:53 pm 14:53 Cloudy 50 10 46 7.8 86 86 NNE 20 31 29.56 1001 10 16.09344 0 0
3:53 pm 15:53 Cloudy 49 9.4 44 6.7 83 83 N 24 39 29.53 1000 10 16.09344 0 0
4:53 pm 16:53 Cloudy 49 9.4 45 7.2 86 86 W 9 15 29.56 1001 10 16.09344 0 0
5:39 pm 17:39 Cloudy with Rain 48 8.9 46 7.8 93 93 WNW 14 22 29.62 1003 4 6.437376 0.09 2.286
5:53 pm 17:53 Cloudy with Light Rain 48 8.9 47 8.3 96 96 WNW 8 13 29.62 1003 7 11.265408 0.1 2.54
6:05 pm 18:05 Cloudy with Light Rain 48 8.9 47 8.3 96 96 SW 7 11 29.68 1005 9 14.484096 0.01 0.254
6:23 pm 18:23 Cloudy with Rain 49 9.4 48 8.9 97 97 NW 8 13 29.65 1004 2.5 4.02336 0.04 1.016
6:42 pm 18:42 Cloudy with Light Rain 49 9.4 48 8.9 97 97 N 12 19 29.59 1002 6 9.656064 0.09 2.286
6:53 pm 18:53 Mostly Cloudy with Light Rain 49 9.4 48 8.9 97 97 NNW 13 20 29.56 1001 10 16.09344 0.09 2.286
7:53 pm 19:53 Partly Cloudy 49 9.4 47 8.3 93 93 NW 8 13 29.56 1001 10 16.09344 0.001 0.001
8:53 pm 20:53 Cloudy with Light Rain 48 8.9 47 8.3 96 96 WNW 7 11 29.56 1001 9 14.484096 0.001 0.001
9:53 pm 21:53 Cloudy with Light Rain 50 10 47 8.3 89 89 NNE 5 7 29.56 1001 10 16.09344 0.01 0.254
10:53 pm 22:53 Mostly Cloudy 49 9.4 48 8.9 97 97 SE 5 7 29.59 1002 10 16.09344 0.001 0.001
11:53 pm 23:53 Cloudy 49 9.4 47 8.3 93 93 ESE 5 7 29.59 1002 10 16.09344 0 0

Powered by AerisWeather